Manteo, NC

10:11 AM EST on January 22, 2018 (GMT -0500)
Dare County Regional

Weather History for KMQI - February, 2013

Change the Weather History Date:

Friday, February 1, 2013

  Actual Average Record
Temperature  
Mean Temperature 40 °F -  
Max Temperature 49 °F 48 °F 73 °F (2002)
Min Temperature 32 °F 36 °F 20 °F (1980)
Degree Days  
Heating Degree Days 24    
Moisture  
Dew Point 20 °F    
Average Humidity 46    
Maximum Humidity 70    
Minimum Humidity 27    
Precipitation  
Precipitation 0.00 in - - ()
Sea Level Pressure  
Sea Level Pressure 30.12 in    
Wind  
Wind Speed 12 mph (WNW)    
Max Wind Speed 28 mph    
Max Gust Speed 41 mph    
Visibility 10 miles    
Events      
Averages and records for this station are not official NWS values.
T = Trace of Precipitation, MM = Missing Value Source: NWS Daily Summary

Daily Weather History Graph

Daily Weather History Graph

Search for Another Location

Airport or City:

Trip Planner

Search our weather history database for the weather conditions in past years. The results will help you decide how hot, cold, wet, or windy it might be!

Date:

Astronomy

Feb. 01, 2013 Rise Set
Actual Time 7:03 AM EST 5:30 PM EST
Civil Twilight 6:36 AM EST 5:57 PM EST
Nautical Twilight 6:05 AM EST 6:27 PM EST
Astronomical Twilight 5:35 AM EST 6:57 PM EST
Moon 11:20 PM EST (2/1) 9:47 AM EST (2/1)
Length of Visible Light 11h 20m
Length of Day
10h 27m
Waning Gibbous, 70% of the Moon is Illuminated
Feb 1
Waning Gibbous
Feb 3
Last Quarter
Feb 10
New
Feb 17
First Quarter
Feb 25
Full

Hourly Weather History & Observations

Time (EST) Temp. Windchill Dew Point Humidity Pressure Visibility Wind Dir Wind Speed Gust Speed Precip Events Conditions
12:15 AM 42.6 °F 37.8 °F 27.7 °F 56% 30.03 in 10.0 mi West 8.1 mph 16.1 mph N/A   Clear
12:35 AM 42.8 °F 38.6 °F 29.1 °F 58% 30.04 in 10.0 mi West 6.9 mph - N/A   Clear
12:55 AM 43.2 °F 39.0 °F 28.0 °F 55% 30.04 in 10.0 mi West 6.9 mph - N/A   Clear
1:15 AM 43.0 °F 38.2 °F 26.8 °F 53% 30.04 in 10.0 mi WNW 8.1 mph - N/A   Clear
1:35 AM 42.8 °F 38.6 °F 25.9 °F 51% 30.04 in 10.0 mi WNW 6.9 mph - N/A   Clear
1:55 AM 42.3 °F 39.4 °F 28.0 °F 57% 30.04 in 10.0 mi West 4.6 mph - N/A   Clear
2:15 AM 41.9 °F - 27.5 °F 57% 30.02 in 10.0 mi Calm Calm - N/A   Clear
2:35 AM 41.5 °F 37.8 °F 28.2 °F 59% 30.02 in 10.0 mi WSW 5.8 mph - N/A   Clear
2:55 AM 41.0 °F 35.2 °F 29.3 °F 63% 30.02 in 10.0 mi SW 9.2 mph - N/A   Clear
3:15 AM 41.0 °F 35.2 °F 30.0 °F 65% 30.02 in 10.0 mi SW 9.2 mph - N/A   Clear
3:35 AM 41.0 °F 34.7 °F 30.6 °F 66% 30.01 in 10.0 mi SW 10.4 mph - N/A   Clear
4:15 AM 41.9 °F 34.6 °F 30.7 °F 65% 29.99 in 10.0 mi SW 13.8 mph - N/A   Clear
4:35 AM 42.8 °F 34.8 °F 32.4 °F 67% 29.97 in 10.0 mi SSW 17.3 mph - N/A   Clear
4:55 AM 42.8 °F 34.5 °F 32.9 °F 68% 29.96 in 10.0 mi SSW 18.4 mph - N/A   Clear
5:15 AM 42.1 °F 33.6 °F 32.5 °F 69% 29.96 in 10.0 mi SW 18.4 mph - N/A   Clear
5:35 AM 41.2 °F 32.4 °F 32.0 °F 70% 29.95 in 10.0 mi SW 18.4 mph - N/A   Clear
6:15 AM 41.4 °F 32.7 °F 32.0 °F 69% 29.94 in 10.0 mi SW 18.4 mph - N/A   Clear
6:35 AM 41.4 °F 33.3 °F 32.2 °F 70% 29.94 in 10.0 mi SW 16.1 mph - N/A   Clear
6:55 AM 41.2 °F 33.0 °F 32.0 °F 70% 29.93 in 10.0 mi SW 16.1 mph - N/A   Clear
7:15 AM 41.9 °F 34.3 °F 31.8 °F 67% 29.93 in 10.0 mi SW 15.0 mph - N/A   Clear
7:35 AM 42.8 °F 35.1 °F 32.0 °F 66% 29.93 in 10.0 mi SW 16.1 mph - N/A   Clear
8:15 AM 46.2 °F 38.1 °F 31.8 °F 57% 29.93 in 10.0 mi WSW 23.0 mph 28.8 mph N/A   Clear
8:35 AM 47.5 °F - 30.7 °F 52% 29.94 in 10.0 mi WSW 26.5 mph 35.7 mph N/A   Clear
8:55 AM 48.2 °F - 30.7 °F 51% 29.95 in 10.0 mi West 23.0 mph 32.2 mph N/A   Clear
9:15 AM 48.9 °F - 31.1 °F 50% 29.95 in 10.0 mi West 25.3 mph 34.5 mph N/A   Clear
9:35 AM 49.3 °F - 30.6 °F 49% 29.97 in 10.0 mi West 20.7 mph 31.1 mph N/A   Clear
9:55 AM 48.7 °F - 30.2 °F 49% 29.98 in 10.0 mi WNW 27.6 mph 41.4 mph N/A   Clear
10:15 AM 48.6 °F - 31.6 °F 52% 30.00 in 10.0 mi NW 20.7 mph 34.5 mph N/A   Mostly Cloudy
10:35 AM 46.4 °F 39.2 °F 31.6 °F 56% 30.02 in 10.0 mi NW 18.4 mph 33.4 mph N/A   Mostly Cloudy
10:55 AM 44.1 °F 36.2 °F 30.7 °F 59% 30.04 in 10.0 mi NW 18.4 mph 28.8 mph N/A   Mostly Cloudy
11:15 AM 43.9 °F 35.9 °F 27.7 °F 53% 30.06 in 10.0 mi WNW 18.4 mph 31.1 mph N/A   Overcast
11:35 AM 42.4 °F 34.7 °F 23.4 °F 47% 30.06 in 10.0 mi NW 16.1 mph 33.4 mph N/A   Overcast
11:55 AM 40.6 °F 31.7 °F 18.5 °F 41% 30.08 in 10.0 mi WNW 18.4 mph 31.1 mph N/A   Overcast
12:15 PM 41.9 °F 34.0 °F 17.8 °F 38% 30.09 in 10.0 mi WNW 16.1 mph 27.6 mph N/A   Scattered Clouds
12:35 PM 42.1 °F 32.8 °F 15.1 °F 34% 30.08 in 10.0 mi NW 21.9 mph 35.7 mph N/A   Scattered Clouds
12:55 PM 42.6 °F 34.9 °F 16.7 °F 35% 30.10 in 10.0 mi NW 16.1 mph 25.3 mph N/A   Clear
1:15 PM 41.9 °F 33.7 °F 15.8 °F 35% 30.11 in 10.0 mi NW 17.3 mph 29.9 mph N/A   Clear
1:35 PM 41.9 °F 34.0 °F 12.4 °F 30% 30.12 in 10.0 mi NW 16.1 mph 27.6 mph N/A   Clear
1:55 PM 41.7 °F 33.7 °F 12.4 °F 30% 30.13 in 10.0 mi WNW 16.1 mph 25.3 mph N/A   Clear
2:15 PM 41.0 °F 33.9 °F 11.1 °F 29% 30.14 in 10.0 mi NW 12.7 mph 25.3 mph N/A   Clear
2:35 PM 40.8 °F 32.6 °F 9.3 °F 27% 30.14 in 10.0 mi WNW 16.1 mph 26.5 mph N/A   Clear
2:55 PM 41.5 °F 34.6 °F 11.3 °F 29% 30.15 in 10.0 mi WNW 12.7 mph 24.2 mph N/A   Clear
3:15 PM 41.0 °F 33.5 °F 9.1 °F 27% 30.16 in 10.0 mi NW 13.8 mph 21.9 mph N/A   Clear
3:35 PM 40.1 °F 33.2 °F 10.2 °F 29% 30.17 in 10.0 mi NW 11.5 mph 21.9 mph N/A   Clear
3:55 PM 39.9 °F 32.9 °F 11.1 °F 31% 30.19 in 10.0 mi NW 11.5 mph 26.5 mph N/A   Clear
4:15 PM 39.7 °F 30.9 °F 11.7 °F 32% 30.19 in 10.0 mi WNW 17.3 mph 23.0 mph N/A   Clear
4:35 PM 39.2 °F 32.5 °F 11.7 °F 32% 30.20 in 10.0 mi WNW 10.4 mph 19.6 mph N/A   Clear
4:55 PM 38.7 °F 33.6 °F 12.4 °F 34% 30.22 in 10.0 mi NW 6.9 mph 20.7 mph N/A   Clear
5:15 PM 37.9 °F 31.5 °F 13.8 °F 37% 30.23 in 10.0 mi WNW 9.2 mph 17.3 mph N/A   Clear
5:35 PM 37.0 °F 29.3 °F 10.4 °F 33% 30.24 in 10.0 mi NW 11.5 mph 20.7 mph N/A   Clear
6:15 PM 36.5 °F 29.2 °F 11.3 °F 35% 30.27 in 10.0 mi NW 10.4 mph 19.6 mph N/A   Clear
6:35 PM 36.0 °F 28.5 °F 8.1 °F 31% 30.27 in 10.0 mi NW 10.4 mph 19.6 mph N/A   Clear
6:55 PM 35.6 °F 28.0 °F 9.0 °F 33% 30.29 in 10.0 mi NW 10.4 mph 19.6 mph N/A   Clear
7:15 PM 35.6 °F 27.1 °F 9.0 °F 33% 30.29 in 10.0 mi NW 12.7 mph 20.7 mph N/A   Clear
7:35 PM 35.1 °F 29.3 °F 10.2 °F 36% 30.30 in 10.0 mi NW 6.9 mph - N/A   Clear
7:55 PM 34.9 °F 27.7 °F 10.8 °F 37% 30.31 in 10.0 mi NW 9.2 mph - N/A   Clear
8:15 PM 34.7 °F 28.8 °F 11.5 °F 38% 30.32 in 10.0 mi NW 6.9 mph - N/A   Clear
8:35 PM 34.2 °F 28.2 °F 11.3 °F 39% 30.32 in 10.0 mi NNW 6.9 mph - N/A   Clear
8:55 PM 33.8 °F 26.4 °F 11.1 °F 39% 30.33 in 10.0 mi NNW 9.2 mph - N/A   Clear
9:15 PM 33.8 °F 26.4 °F 10.8 °F 38% 30.34 in 10.0 mi NW 9.2 mph - N/A   Clear
9:35 PM 33.8 °F 27.7 °F 8.1 °F 34% 30.35 in 10.0 mi NW 6.9 mph - N/A   Clear
9:55 PM 33.4 °F 28.1 °F 7.7 °F 34% 30.35 in 10.0 mi NW 5.8 mph - N/A   Clear
10:15 PM 33.3 °F 25.1 °F 7.9 °F 35% 30.36 in 10.0 mi NW 10.4 mph 16.1 mph N/A   Clear
10:35 PM 32.9 °F 27.5 °F 8.6 °F 36% 30.36 in 10.0 mi NNW 5.8 mph - N/A   Clear
10:55 PM 32.7 °F 27.3 °F 9.3 °F 38% 30.37 in 10.0 mi NNW 5.8 mph - N/A   Clear
11:15 PM 32.4 °F 27.9 °F 9.1 °F 38% 30.37 in 10.0 mi NNW 4.6 mph - N/A   Clear
11:35 PM 32.4 °F 26.0 °F 10.6 °F 40% 30.37 in 10.0 mi NNW 6.9 mph - N/A   Clear
11:55 PM 32.0 °F 24.2 °F 9.3 °F 39% 30.37 in 10.0 mi North 9.2 mph - N/A   Clear